User: anonymous   Login
Location: A�t �Alizem
(31.2076°N, 8.7872°W)
Time: 04:55:48
(UTC+00:00)
Language:

Cosmos 1470 Rocket - Orbit

View from above orbital plane
View from above orbital plane
View from above satellite
View from above satellite

Ground track
Ground track

The orbit data is extracted from the following two-line orbital elements,

1 14148U 83061B   21055.76406845  .00000122  00000-0  11976-4 0  9992
2 14148  82.5160  86.3860 0020910 203.8914 206.2793 14.83366659 13624
Epoch (UTC): 24 February 2021 18:20:15
Eccentricity: 0.0020910
inclination: 82.5160°
perigee height: 604 km
apogee height: 633 km
right ascension of ascending node: 86.3860°
argument of perigee: 203.8914°
revolutions per day: 14.83366659
mean anomaly at epoch: 206.2793°
orbit number at epoch: 1362

The dashed part of the orbit path shows where the satellite is in the earth's shadow,  

DLR